sat.trackr.live / text

‹ back to catalog

STARLINK-31117

NORAD 58776 · 2024-011M

PAYLOAD ACTIVE UNKNOWN

§ Identity

Operator
Country
US
Launch date
2024-01-14
Launch site
AFWTR
Launch vehicle
Mass (kg)
RCS (m²)

Purposes: comms

External: N2YO · Heavens-Above · Gunter

§ Orbital elements

Epoch: 2026-09-20T11:42:02.909952Z

Period
93.85 min
Inclination
53.1601°
Eccentricity
0.0001540
Mean motion
15.34390868 rev/d
Perigee alt
461.7 km
Apogee alt
463.8 km
Semi-major
6,840.9 km
B*
2.3582e-5
RAAN
187.5061°
Arg perigee
56.2464°
Mean anomaly
303.8685°
Rev number
15,011

§ Raw data

STARLINK-311171 58776U 24011M   26263.48753368  .00000420  00000+0  23582-4 0  99932 58776  53.1601 187.5061 0001540  56.2464 303.8685 15.34390868150114

JSON: /api/v1/satellites/58776 · /tle

For live sub-satellite position, see the globe view (requires WebGL).

§ Visibility from observer

Set your observer location to see the next 7 days of passes ≥ 10°. The values pass through the URL so the page stays shareable.

No JS? Fill the form by hand. The geolocation button needs JavaScript.